Time,TemperatureF,DewpointF,PressureIn,WindDirection,WindDirectionDegrees,WindSpeedMPH,WindSpeedGustMPH,Humidity,HourlyPrecipIn,Conditions,Clouds,dailyrainin,SoftwareType,DateUTC
2013-03-23 00:02:00,22.0,10.0,30.05,North,-999,-999.0,-999.0,59,-99.99,,,-99.99,,2013-03-23 05:02:00,
2013-03-23 00:12:00,22.0,10.0,30.05,North,-999,-999.0,-999.0,59,-99.99,,,-99.99,,2013-03-23 05:12:00,
2013-03-23 00:22:00,23.0,11.0,30.05,North,-999,-999.0,-999.0,59,-99.99,,,-99.99,,2013-03-23 05:22:00,
2013-03-23 00:32:00,23.0,10.0,30.05,North,-999,-999.0,-999.0,58,-99.99,,,-99.99,,2013-03-23 05:32:00,
2013-03-23 00:42:00,23.0,10.0,30.05,North,-999,-999.0,-999.0,58,-99.99,,,-99.99,,2013-03-23 05:42:00,
2013-03-23 00:52:00,23.0,10.0,30.05,North,-999,-999.0,-999.0,58,-99.99,,,-99.99,,2013-03-23 05:52:00,
2013-03-23 01:02:00,23.0,11.0,30.05,North,-999,-999.0,-999.0,59,-99.99,,,-99.99,,2013-03-23 06:02:00,
2013-03-23 01:12:00,23.0,11.0,30.05,North,-999,-999.0,-999.0,59,-99.99,,,-99.99,,2013-03-23 06:12:00,
2013-03-23 01:22:00,23.0,11.0,30.08,North,-999,-999.0,-999.0,59,-99.99,,,-99.99,,2013-03-23 06:22:00,
2013-03-23 01:32:00,23.0,11.0,30.05,North,-999,-999.0,-999.0,59,-99.99,,,-99.99,,2013-03-23 06:32:00,
2013-03-23 01:42:00,23.0,11.0,30.05,North,-999,-999.0,-999.0,59,-99.99,,,-99.99,,2013-03-23 06:42:00,
2013-03-23 01:52:00,23.0,11.0,30.08,North,-999,-999.0,-999.0,59,-99.99,,,-99.99,,2013-03-23 06:52:00,
2013-03-23 02:02:00,23.0,10.0,30.08,North,-999,-999.0,-999.0,58,-99.99,,,-99.99,,2013-03-23 07:02:00,
2013-03-23 02:12:00,23.0,10.0,30.08,North,-999,-999.0,-999.0,58,-99.99,,,-99.99,,2013-03-23 07:12:00,
2013-03-23 02:22:00,23.0,11.0,30.05,North,-999,-999.0,-999.0,59,-99.99,,,-99.99,,2013-03-23 07:22:00,
2013-03-23 02:32:00,24.0,12.0,30.05,North,-999,-999.0,-999.0,59,-99.99,,,-99.99,,2013-03-23 07:32:00,
2013-03-23 02:42:00,24.0,12.0,30.05,North,-999,-999.0,-999.0,59,-99.99,,,-99.99,,2013-03-23 07:42:00,
2013-03-23 02:52:00,23.0,12.0,30.05,North,-999,-999.0,-999.0,61,-99.99,,,-99.99,,2013-03-23 07:52:00,
2013-03-23 03:02:00,23.0,12.0,30.05,North,-999,-999.0,-999.0,61,-99.99,,,-99.99,,2013-03-23 08:02:00,
2013-03-23 03:12:00,23.0,12.0,30.05,North,-999,-999.0,-999.0,61,-99.99,,,-99.99,,2013-03-23 08:12:00,
2013-03-23 03:22:00,23.0,12.0,30.05,North,-999,-999.0,-999.0,61,-99.99,,,-99.99,,2013-03-23 08:22:00,
2013-03-23 03:32:00,23.0,12.0,30.05,North,-999,-999.0,-999.0,62,-99.99,,,-99.99,,2013-03-23 08:32:00,
2013-03-23 03:42:00,23.0,12.0,30.05,North,-999,-999.0,-999.0,62,-99.99,,,-99.99,,2013-03-23 08:42:00,
2013-03-23 03:52:00,23.0,12.0,30.05,North,-999,-999.0,-999.0,63,-99.99,,,-99.99,,2013-03-23 08:52:00,
2013-03-23 04:02:00,23.0,13.0,30.05,North,-999,-999.0,-999.0,64,-99.99,,,-99.99,,2013-03-23 09:02:00,
2013-03-23 04:12:00,23.0,13.0,30.05,North,-999,-999.0,-999.0,64,-99.99,,,-99.99,,2013-03-23 09:12:00,
2013-03-23 04:22:00,23.0,13.0,30.02,North,-999,-999.0,-999.0,64,-99.99,,,-99.99,,2013-03-23 09:22:00,
2013-03-23 04:33:00,23.0,12.0,30.02,North,-999,-999.0,-999.0,63,-99.99,,,-99.99,,2013-03-23 09:33:00,
2013-03-23 04:42:00,23.0,12.0,30.02,North,-999,-999.0,-999.0,63,-99.99,,,-99.99,,2013-03-23 09:42:00,
2013-03-23 04:53:00,22.0,11.0,30.05,North,-999,-999.0,-999.0,63,-99.99,,,-99.99,,2013-03-23 09:53:00,
2013-03-23 05:03:00,21.0,11.0,30.05,North,-999,-999.0,-999.0,64,-99.99,,,-99.99,,2013-03-23 10:03:00,
2013-03-23 05:13:00,21.0,11.0,30.05,North,-999,-999.0,-999.0,64,-99.99,,,-99.99,,2013-03-23 10:13:00,
2013-03-23 05:23:00,20.0,10.0,30.02,North,-999,-999.0,-999.0,65,-99.99,,,-99.99,,2013-03-23 10:23:00,
2013-03-23 05:33:00,20.0,10.0,30.02,North,-999,-999.0,-999.0,65,-99.99,,,-99.99,,2013-03-23 10:33:00,
2013-03-23 05:42:00,20.0,10.0,30.02,North,-999,-999.0,-999.0,65,-99.99,,,-99.99,,2013-03-23 10:42:00,
2013-03-23 05:52:00,18.0,9.0,30.08,North,-999,-999.0,-999.0,67,-99.99,,,-99.99,,2013-03-23 10:52:00,
2013-03-23 06:03:00,17.0,8.0,30.08,North,-999,-999.0,-999.0,68,-99.99,,,-99.99,,2013-03-23 11:03:00,
2013-03-23 06:12:00,17.0,8.0,30.08,North,-999,-999.0,-999.0,68,-99.99,,,-99.99,,2013-03-23 11:12:00,
2013-03-23 06:22:00,18.0,10.0,30.08,North,-999,-999.0,-999.0,69,-99.99,,,-99.99,,2013-03-23 11:22:00,
2013-03-23 06:32:00,18.0,10.0,30.08,North,-999,-999.0,-999.0,69,-99.99,,,-99.99,,2013-03-23 11:32:00,
2013-03-23 06:42:00,18.0,10.0,30.08,North,-999,-999.0,-999.0,69,-99.99,,,-99.99,,2013-03-23 11:42:00,
2013-03-23 06:52:00,17.0,9.0,30.08,North,-999,-999.0,-999.0,70,-99.99,,,-99.99,,2013-03-23 11:52:00,
2013-03-23 07:02:00,16.0,8.0,30.11,North,-999,-999.0,-999.0,71,-99.99,,,-99.99,,2013-03-23 12:02:00,
2013-03-23 07:13:00,16.0,8.0,30.11,North,-999,-999.0,-999.0,71,-99.99,,,-99.99,,2013-03-23 12:13:00,
2013-03-23 07:22:00,17.0,9.0,30.08,North,-999,-999.0,-999.0,71,-99.99,,,-99.99,,2013-03-23 12:22:00,
2013-03-23 07:33:00,17.0,10.0,30.08,North,-999,-999.0,-999.0,72,-99.99,,,-99.99,,2013-03-23 12:33:00,
2013-03-23 07:42:00,17.0,10.0,30.08,North,-999,-999.0,-999.0,72,-99.99,,,-99.99,,2013-03-23 12:42:00,
2013-03-23 07:53:00,18.0,10.0,30.08,North,-999,-999.0,-999.0,71,-99.99,,,-99.99,,2013-03-23 12:53:00,
2013-03-23 08:02:00,19.0,10.0,30.08,North,-999,-999.0,-999.0,68,-99.99,,,-99.99,,2013-03-23 13:02:00,
2013-03-23 08:12:00,19.0,10.0,30.08,North,-999,-999.0,-999.0,68,-99.99,,,-99.99,,2013-03-23 13:12:00,
2013-03-23 08:23:00,21.0,11.0,30.11,North,-999,-999.0,-999.0,65,-99.99,,,-99.99,,2013-03-23 13:23:00,
2013-03-23 08:32:00,22.0,11.0,30.11,North,-999,-999.0,-999.0,63,-99.99,,,-99.99,,2013-03-23 13:32:00,
2013-03-23 08:42:00,22.0,11.0,30.11,North,-999,-999.0,-999.0,63,-99.99,,,-99.99,,2013-03-23 13:42:00,
2013-03-23 08:53:00,24.0,13.0,30.11,North,-999,-999.0,-999.0,62,-99.99,,,-99.99,,2013-03-23 13:53:00,
2013-03-23 09:03:00,26.0,14.0,30.11,North,-999,-999.0,-999.0,60,-99.99,,,-99.99,,2013-03-23 14:03:00,
2013-03-23 09:12:00,26.0,14.0,30.11,North,-999,-999.0,-999.0,60,-99.99,,,-99.99,,2013-03-23 14:12:00,
2013-03-23 09:22:00,28.0,15.0,30.11,North,-999,-999.0,-999.0,58,-99.99,,,-99.99,,2013-03-23 14:22:00,
2013-03-23 09:32:00,29.0,16.0,30.11,North,-999,-999.0,-999.0,57,-99.99,,,-99.99,,2013-03-23 14:32:00,
2013-03-23 09:42:00,29.0,16.0,30.11,North,-999,-999.0,-999.0,57,-99.99,,,-99.99,,2013-03-23 14:42:00,
2013-03-23 09:53:00,31.0,17.0,30.08,North,-999,-999.0,-999.0,55,-99.99,,,-99.99,,2013-03-23 14:53:00,
2013-03-23 10:03:00,32.0,16.0,30.08,North,-999,-999.0,-999.0,52,-99.99,,,-99.99,,2013-03-23 15:03:00,
2013-03-23 10:12:00,32.0,16.0,30.08,North,-999,-999.0,-999.0,52,-99.99,,,-99.99,,2013-03-23 15:12:00,
2013-03-23 10:22:00,33.0,17.0,30.08,North,-999,-999.0,-999.0,52,-99.99,,,-99.99,,2013-03-23 15:22:00,
2013-03-23 10:33:00,34.0,18.0,30.08,North,-999,-999.0,-999.0,52,-99.99,,,-99.99,,2013-03-23 15:33:00,
2013-03-23 10:43:00,34.0,18.0,30.08,North,-999,-999.0,-999.0,52,-99.99,,,-99.99,,2013-03-23 15:43:00,
2013-03-23 10:53:00,35.0,18.0,30.08,North,-999,-999.0,-999.0,50,-99.99,,,-99.99,,2013-03-23 15:53:00,
2013-03-23 11:03:00,36.0,19.0,30.08,North,-999,-999.0,-999.0,49,-99.99,,,-99.99,,2013-03-23 16:03:00,
2013-03-23 11:12:00,36.0,19.0,30.08,North,-999,-999.0,-999.0,49,-99.99,,,-99.99,,2013-03-23 16:12:00,
2013-03-23 11:23:00,38.0,19.0,30.08,North,-999,-999.0,-999.0,45,-99.99,,,-99.99,,2013-03-23 16:23:00,
2013-03-23 11:32:00,39.0,19.0,30.08,North,-999,-999.0,-999.0,44,-99.99,,,-99.99,,2013-03-23 16:32:00,
2013-03-23 11:43:00,39.0,19.0,30.08,North,-999,-999.0,-999.0,44,-99.99,,,-99.99,,2013-03-23 16:43:00,
2013-03-23 11:53:00,40.0,19.0,30.08,North,-999,-999.0,-999.0,43,-99.99,,,-99.99,,2013-03-23 16:53:00,
2013-03-23 12:02:00,40.0,20.0,30.08,North,-999,-999.0,-999.0,44,-99.99,,,-99.99,,2013-03-23 17:02:00,
2013-03-23 12:12:00,40.0,20.0,30.08,North,-999,-999.0,-999.0,44,-99.99,,,-99.99,,2013-03-23 17:12:00,
2013-03-23 12:22:00,41.0,19.0,30.08,North,-999,-999.0,-999.0,41,-99.99,,,-99.99,,2013-03-23 17:22:00,
2013-03-23 12:32:00,41.0,20.0,30.08,North,-999,-999.0,-999.0,42,-99.99,,,-99.99,,2013-03-23 17:32:00,
2013-03-23 12:42:00,41.0,20.0,30.08,North,-999,-999.0,-999.0,42,-99.99,,,-99.99,,2013-03-23 17:42:00,
2013-03-23 12:53:00,41.0,19.0,30.08,North,-999,-999.0,-999.0,41,-99.99,,,-99.99,,2013-03-23 17:53:00,
2013-03-23 13:03:00,43.0,20.0,30.08,North,-999,-999.0,-999.0,39,-99.99,,,-99.99,,2013-03-23 18:03:00,
2013-03-23 13:12:00,43.0,20.0,30.08,North,-999,-999.0,-999.0,39,-99.99,,,-99.99,,2013-03-23 18:12:00,
2013-03-23 13:22:00,44.0,21.0,30.08,North,-999,-999.0,-999.0,40,-99.99,,,-99.99,,2013-03-23 18:22:00,
2013-03-23 13:32:00,45.0,22.0,30.08,North,-999,-999.0,-999.0,39,-99.99,,,-99.99,,2013-03-23 18:32:00,
2013-03-23 13:42:00,45.0,22.0,30.08,North,-999,-999.0,-999.0,39,-99.99,,,-99.99,,2013-03-23 18:42:00,
2013-03-23 13:53:00,44.0,20.0,30.08,North,-999,-999.0,-999.0,38,-99.99,,,-99.99,,2013-03-23 18:53:00,
2013-03-23 14:03:00,45.0,21.0,30.08,North,-999,-999.0,-999.0,38,-99.99,,,-99.99,,2013-03-23 19:03:00,
2013-03-23 14:12:00,45.0,21.0,30.08,North,-999,-999.0,-999.0,38,-99.99,,,-99.99,,2013-03-23 19:12:00,
2013-03-23 14:22:00,44.0,20.0,30.08,North,-999,-999.0,-999.0,38,-99.99,,,-99.99,,2013-03-23 19:22:00,
2013-03-23 14:32:00,45.0,21.0,30.08,North,-999,-999.0,-999.0,38,-99.99,,,-99.99,,2013-03-23 19:32:00,
2013-03-23 14:42:00,45.0,21.0,30.08,North,-999,-999.0,-999.0,38,-99.99,,,-99.99,,2013-03-23 19:42:00,
2013-03-23 14:53:00,47.0,23.0,30.08,North,-999,-999.0,-999.0,38,-99.99,,,-99.99,,2013-03-23 19:53:00,
2013-03-23 15:02:00,45.0,21.0,30.08,North,-999,-999.0,-999.0,38,-99.99,,,-99.99,,2013-03-23 20:02:00,
2013-03-23 15:13:00,45.0,21.0,30.08,North,-999,-999.0,-999.0,38,-99.99,,,-99.99,,2013-03-23 20:13:00,
2013-03-23 15:22:00,47.0,23.0,30.05,North,-999,-999.0,-999.0,38,-99.99,,,-99.99,,2013-03-23 20:22:00,
2013-03-23 15:32:00,47.0,23.0,30.05,North,-999,-999.0,-999.0,38,-99.99,,,-99.99,,2013-03-23 20:32:00,
2013-03-23 15:42:00,47.0,23.0,30.05,North,-999,-999.0,-999.0,38,-99.99,,,-99.99,,2013-03-23 20:42:00,
2013-03-23 15:53:00,47.0,23.0,30.05,North,-999,-999.0,-999.0,38,-99.99,,,-99.99,,2013-03-23 20:53:00,
2013-03-23 16:02:00,47.0,22.0,30.05,North,-999,-999.0,-999.0,37,-99.99,,,-99.99,,2013-03-23 21:02:00,
2013-03-23 16:12:00,47.0,22.0,30.05,North,-999,-999.0,-999.0,37,-99.99,,,-99.99,,2013-03-23 21:12:00,
2013-03-23 16:22:00,48.0,23.0,30.02,North,-999,-999.0,-999.0,37,-99.99,,,-99.99,,2013-03-23 21:22:00,
2013-03-23 16:33:00,47.0,22.0,30.02,North,-999,-999.0,-999.0,37,-99.99,,,-99.99,,2013-03-23 21:33:00,
2013-03-23 16:43:00,47.0,22.0,30.02,North,-999,-999.0,-999.0,37,-99.99,,,-99.99,,2013-03-23 21:43:00,
2013-03-23 16:54:00,47.0,23.0,30.02,North,-999,-999.0,-999.0,38,-99.99,,,-99.99,,2013-03-23 21:54:00,
2013-03-23 17:02:00,47.0,23.0,30.02,North,-999,-999.0,-999.0,38,-99.99,,,-99.99,,2013-03-23 22:02:00,
2013-03-23 17:12:00,47.0,23.0,30.02,North,-999,-999.0,-999.0,38,-99.99,,,-99.99,,2013-03-23 22:12:00,
2013-03-23 17:23:00,46.0,21.0,29.99,North,-999,-999.0,-999.0,37,-99.99,,,-99.99,,2013-03-23 22:23:00,
2013-03-23 17:33:00,44.0,21.0,29.99,North,-999,-999.0,-999.0,39,-99.99,,,-99.99,,2013-03-23 22:33:00,
2013-03-23 17:42:00,44.0,21.0,29.99,North,-999,-999.0,-999.0,39,-99.99,,,-99.99,,2013-03-23 22:42:00,
2013-03-23 17:53:00,43.0,20.0,29.99,North,-999,-999.0,-999.0,39,-99.99,,,-99.99,,2013-03-23 22:53:00,
2013-03-23 18:02:00,42.0,19.0,29.99,North,-999,-999.0,-999.0,39,-99.99,,,-99.99,,2013-03-23 23:02:00,
2013-03-23 18:12:00,42.0,19.0,29.99,North,-999,-999.0,-999.0,39,-99.99,,,-99.99,,2013-03-23 23:12:00,
2013-03-23 18:23:00,40.0,18.0,29.99,North,-999,-999.0,-999.0,40,-99.99,,,-99.99,,2013-03-23 23:23:00,
2013-03-23 18:33:00,39.0,17.0,30.02,North,-999,-999.0,-999.0,41,-99.99,,,-99.99,,2013-03-23 23:33:00,
2013-03-23 18:42:00,39.0,17.0,30.02,North,-999,-999.0,-999.0,41,-99.99,,,-99.99,,2013-03-23 23:42:00,
2013-03-23 18:52:00,38.0,17.0,30.02,North,-999,-999.0,-999.0,42,-99.99,,,-99.99,,2013-03-23 23:52:00,
2013-03-23 19:02:00,37.0,17.0,30.02,North,-999,-999.0,-999.0,43,-99.99,,,-99.99,,2013-03-24 00:02:00,
2013-03-23 19:12:00,37.0,17.0,30.02,North,-999,-999.0,-999.0,43,-99.99,,,-99.99,,2013-03-24 00:12:00,
2013-03-23 19:22:00,36.0,16.0,30.02,North,-999,-999.0,-999.0,44,-99.99,,,-99.99,,2013-03-24 00:22:00,
2013-03-23 19:32:00,35.0,16.0,30.02,North,-999,-999.0,-999.0,46,-99.99,,,-99.99,,2013-03-24 00:32:00,
2013-03-23 19:42:00,35.0,16.0,30.02,North,-999,-999.0,-999.0,46,-99.99,,,-99.99,,2013-03-24 00:42:00,
2013-03-23 19:52:00,34.0,16.0,30.02,North,-999,-999.0,-999.0,47,-99.99,,,-99.99,,2013-03-24 00:52:00,
2013-03-23 20:02:00,34.0,16.0,30.02,North,-999,-999.0,-999.0,47,-99.99,,,-99.99,,2013-03-24 01:02:00,
2013-03-23 20:12:00,34.0,16.0,30.02,North,-999,-999.0,-999.0,47,-99.99,,,-99.99,,2013-03-24 01:12:00,
2013-03-23 20:22:00,34.0,16.0,30.02,North,-999,-999.0,-999.0,48,-99.99,,,-99.99,,2013-03-24 01:22:00,
2013-03-23 20:32:00,33.0,16.0,30.02,North,-999,-999.0,-999.0,49,-99.99,,,-99.99,,2013-03-24 01:32:00,
2013-03-23 20:42:00,33.0,16.0,30.02,North,-999,-999.0,-999.0,49,-99.99,,,-99.99,,2013-03-24 01:42:00,
2013-03-23 20:53:00,34.0,17.0,30.05,North,-999,-999.0,-999.0,50,-99.99,,,-99.99,,2013-03-24 01:53:00,
2013-03-23 21:02:00,34.0,18.0,30.05,North,-999,-999.0,-999.0,51,-99.99,,,-99.99,,2013-03-24 02:02:00,
2013-03-23 21:12:00,34.0,18.0,30.05,North,-999,-999.0,-999.0,51,-99.99,,,-99.99,,2013-03-24 02:12:00,
2013-03-23 21:22:00,34.0,18.0,30.05,North,-999,-999.0,-999.0,51,-99.99,,,-99.99,,2013-03-24 02:22:00,
2013-03-23 21:32:00,34.0,18.0,30.05,North,-999,-999.0,-999.0,51,-99.99,,,-99.99,,2013-03-24 02:32:00,
2013-03-23 21:42:00,34.0,18.0,30.05,North,-999,-999.0,-999.0,51,-99.99,,,-99.99,,2013-03-24 02:42:00,
2013-03-23 21:52:00,34.0,18.0,30.05,North,-999,-999.0,-999.0,51,-99.99,,,-99.99,,2013-03-24 02:52:00,
2013-03-23 22:02:00,33.0,17.0,30.05,North,-999,-999.0,-999.0,52,-99.99,,,-99.99,,2013-03-24 03:02:00,
2013-03-23 22:12:00,33.0,17.0,30.05,North,-999,-999.0,-999.0,52,-99.99,,,-99.99,,2013-03-24 03:12:00,
2013-03-23 22:22:00,33.0,17.0,30.05,North,-999,-999.0,-999.0,52,-99.99,,,-99.99,,2013-03-24 03:22:00,
2013-03-23 22:33:00,33.0,18.0,30.02,North,-999,-999.0,-999.0,53,-99.99,,,-99.99,,2013-03-24 03:33:00,
2013-03-23 22:42:00,33.0,18.0,30.02,North,-999,-999.0,-999.0,53,-99.99,,,-99.99,,2013-03-24 03:42:00,
2013-03-23 22:53:00,32.0,17.0,30.05,North,-999,-999.0,-999.0,54,-99.99,,,-99.99,,2013-03-24 03:53:00,
2013-03-23 23:02:00,32.0,17.0,30.05,North,-999,-999.0,-999.0,54,-99.99,,,-99.99,,2013-03-24 04:02:00,
2013-03-23 23:12:00,32.0,17.0,30.05,North,-999,-999.0,-999.0,54,-99.99,,,-99.99,,2013-03-24 04:12:00,
2013-03-23 23:22:00,32.0,17.0,30.05,North,-999,-999.0,-999.0,54,-99.99,,,-99.99,,2013-03-24 04:22:00,
2013-03-23 23:32:00,31.0,17.0,30.05,North,-999,-999.0,-999.0,55,-99.99,,,-99.99,,2013-03-24 04:32:00,
2013-03-23 23:42:00,31.0,17.0,30.05,North,-999,-999.0,-999.0,55,-99.99,,,-99.99,,2013-03-24 04:42:00,
2013-03-23 23:53:00,31.0,17.0,30.05,North,-999,-999.0,-999.0,56,-99.99,,,-99.99,,2013-03-24 04:53:00,